| time (UTC) | temp F | wind direction | speed MPH | gust MPH | rain 1hr in | rain 24hr in | rain mn in | humidity % | barometer mb |
| 20260504044535 | 51 | 183 | 4.0 | 12.0 | 0.00 | 0.00 | 0.00 | 69 | 1010.8 |
| 20260504043045 | 50 | 234 | 4.0 | 9.0 | 0.00 | 0.00 | 0.00 | 69 | 1010.9 |
| 20260504041536 | 50 | 222 | 3.0 | 8.0 | 0.00 | 0.00 | 0.00 | 70 | 1011.0 |
| 20260504040035 | 50 | 192 | 3.0 | 11.0 | 0.00 | 0.00 | 0.00 | 70 | 1011.2 |
| 20260504034537 | 50 | 158 | 2.0 | 5.0 | 0.00 | 0.00 | 0.00 | 70 | 1011.4 |
| 20260504033038 | 51 | 229 | 1.0 | 6.0 | 0.00 | 0.00 | 0.00 | 69 | 1011.4 |
| 20260504031540 | 51 | 193 | 2.0 | 7.0 | 0.00 | 0.00 | 0.00 | 69 | 1011.8 |
| 20260504030035 | 51 | 185 | 1.0 | 8.0 | 0.00 | 0.00 | 0.00 | 68 | 1011.9 |
| 20260504024536 | 51 | 227 | 1.0 | 6.0 | 0.00 | 0.00 | 0.00 | 68 | 1012.0 |
| 20260504023034 | 52 | 242 | 2.0 | 9.0 | 0.00 | 0.00 | 0.00 | 67 | 1012.2 |
| 20260504021533 | 52 | 232 | 2.0 | 13.0 | 0.00 | 0.00 | 0.00 | 66 | 1012.2 |
| 20260504020036 | 52 | 214 | 3.0 | 9.0 | 0.00 | 0.00 | 0.00 | 66 | 1012.2 |
| 20260504014540 | 52 | 279 | 1.0 | 9.0 | 0.00 | 0.00 | 0.00 | 65 | 1012.3 |
| 20260504013047 | 53 | 241 | 4.0 | 12.0 | 0.00 | 0.00 | 0.00 | 64 | 1012.3 |
| 20260504011538 | 53 | 236 | 2.0 | 9.0 | 0.00 | 0.00 | 0.00 | 63 | 1012.3 |
| 20260504010039 | 54 | 284 | 5.0 | 11.0 | 0.00 | 0.00 | 0.00 | 62 | 1012.2 |
| 20260504004532 | 55 | 291 | 2.0 | 12.0 | 0.00 | 0.00 | 0.00 | 57 | 1012.1 |
| 20260504003036 | 56 | 292 | 2.0 | 8.0 | 0.00 | 0.00 | 0.00 | 49 | 1011.7 |
| 20260504001540 | 57 | 226 | 3.0 | 13.0 | 0.00 | 0.00 | 0.00 | 46 | 1011.7 |
| 20260504000034 | 58 | 266 | 2.0 | 18.0 | 0.00 | 0.00 | 0.00 | 45 | 1011.6 |
| 20260503234535 | 59 | 215 | 5.0 | 14.0 | 0.00 | 0.00 | 0.00 | 45 | 1011.6 |
| 20260503233042 | 59 | 277 | 5.0 | 14.0 | 0.00 | 0.00 | 0.00 | 42 | 1011.8 |
| 20260503231536 | 60 | 202 | 4.0 | 12.0 | 0.00 | 0.00 | 0.00 | 43 | 1011.7 |
| 20260503230035 | 61 | 240 | 6.0 | 16.0 | 0.00 | 0.00 | 0.00 | 42 | 1011.8 |
| 20260503224535 | 61 | 242 | 3.0 | 13.0 | 0.00 | 0.00 | 0.00 | 42 | 1011.7 |
| 20260503223034 | 61 | 270 | 8.0 | 18.0 | 0.00 | 0.00 | 0.00 | 40 | 1011.8 |
| 20260503221536 | 62 | 262 | 6.0 | 17.0 | 0.00 | 0.00 | 0.00 | 41 | 1012.0 |
| 20260503220035 | 63 | 251 | 3.0 | 15.0 | 0.00 | 0.00 | 0.00 | 43 | 1012.0 |
| 20260503214535 | 62 | 250 | 4.0 | 12.0 | 0.00 | 0.00 | 0.00 | 44 | 1012.1 |
| 20260503213033 | 62 | 305 | 6.0 | 15.0 | 0.00 | 0.00 | 0.00 | 42 | 1012.1 |
| 20260503211535 | 62 | 226 | 5.0 | 16.0 | 0.00 | 0.00 | 0.00 | 43 | 1012.1 |
| 20260503210034 | 61 | 209 | 5.0 | 15.0 | 0.00 | 0.00 | 0.00 | 44 | 1012.1 |
| 20260503204532 | 61 | 254 | 5.0 | 18.0 | 0.00 | 0.00 | 0.00 | 44 | 1012.4 |
| 20260503203040 | 61 | 129 | 6.0 | 15.0 | 0.00 | 0.00 | 0.00 | 45 | 1012.3 |
| 20260503201543 | 61 | 182 | 5.0 | 16.0 | 0.00 | 0.00 | 0.00 | 44 | 1012.4 |
| 20260503200035 | 63 | 321 | 6.0 | 18.0 | 0.00 | 0.00 | 0.00 | 41 | 1012.7 |
| 20260503194533 | 62 | 205 | 6.0 | 21.0 | 0.00 | 0.00 | 0.00 | 43 | 1012.9 |
| 20260503193031 | 61 | 249 | 4.0 | 15.0 | 0.00 | 0.00 | 0.00 | 46 | 1013.1 |
| 20260503191538 | 61 | 163 | 7.0 | 19.0 | 0.00 | 0.00 | 0.00 | 44 | 1013.4 |
| 20260503190041 | 61 | 288 | 7.0 | 17.0 | 0.00 | 0.00 | 0.00 | 45 | 1013.5 |
| 20260503184538 | 62 | 254 | 7.0 | 19.0 | 0.00 | 0.00 | 0.00 | 45 | 1013.6 |
| 20260503183035 | 61 | 262 | 4.0 | 14.0 | 0.00 | 0.00 | 0.00 | 49 | 1013.9 |
| 20260503181535 | 60 | 86 | 5.0 | 17.0 | 0.00 | 0.00 | 0.00 | 45 | 1013.9 |
| 20260503180045 | 61 | 267 | 6.0 | 15.0 | 0.00 | 0.00 | 0.00 | 44 | 1014.2 |
| 20260503174535 | 61 | 286 | 5.0 | 15.0 | 0.00 | 0.00 | 0.00 | 46 | 1014.2 |
| 20260503173040 | 60 | 218 | 7.0 | 15.0 | 0.00 | 0.00 | 0.00 | 47 | 1014.4 |
| 20260503171536 | 60 | 308 | 7.0 | 16.0 | 0.00 | 0.00 | 0.00 | 47 | 1014.7 |
| 20260503081535 | 35 | 174 | 0.0 | 3.0 | 0.00 | 0.12 | 0.00 | 82 | 1016.1 |
| 20260503071535 | 35 | 0 | 0.0 | 1.0 | 0.00 | 0.12 | 0.00 | 84 | 1016.2 |
| 20260503060105 | 36 | 0 | 0.0 | 2.0 | 0.00 | 0.12 | 0.00 | 84 | 1016.5 |
| 20260503054538 | 36 | 0 | 0.0 | 3.0 | 0.00 | 0.12 | 0.00 | 84 | 1016.6 |
| 20260503053034 | 36 | 212 | 0.0 | 3.0 | 0.00 | 0.12 | 0.00 | 84 | 1016.6 |
| 20260503051532 | 36 | 0 | 0.0 | 1.0 | 0.00 | 0.12 | 0.00 | 83 | 1016.6 |
| 20260503050037 | 37 | 0 | 0.0 | 2.0 | 0.00 | 0.12 | 0.00 | 82 | 1016.5 |